Time,TemperatureF,DewpointF,PressureIn,WindDirection,WindDirectionDegrees,WindSpeedMPH,WindSpeedGustMPH,Humidity,HourlyPrecipIn,Conditions,Clouds,dailyrainin,SoftwareType,DateUTC
2013-01-16 00:04:00,40.9,29.7,30.39,ESE,107,0.0,1.0,64,0.00,,,0.00,LWC V2.00 B2112,2013-01-16 08:04:00,
2013-01-16 00:09:00,40.9,29.7,30.39,ESE,106,0.0,1.0,64,0.00,,,0.00,LWC V2.00 B2112,2013-01-16 08:09:00,
2013-01-16 00:14:00,40.9,29.7,30.39,ESE,106,0.0,2.0,64,0.00,,,0.00,LWC V2.00 B2112,2013-01-16 08:14:00,
2013-01-16 00:19:00,40.9,29.7,30.39,ESE,106,0.0,1.0,64,0.00,,,0.00,LWC V2.00 B2112,2013-01-16 08:19:00,
2013-01-16 00:24:00,40.9,29.7,30.39,ESE,107,0.0,0.0,64,0.00,,,0.00,LWC V2.00 B2112,2013-01-16 08:24:00,
2013-01-16 00:29:00,40.9,29.7,30.39,ESE,107,1.0,2.0,64,0.00,,,0.00,LWC V2.00 B2112,2013-01-16 08:29:00,
2013-01-16 00:34:00,40.8,29.6,30.39,ESE,106,0.0,2.0,64,0.00,,,0.00,LWC V2.00 B2112,2013-01-16 08:34:00,
2013-01-16 00:39:00,40.7,29.5,30.39,ESE,107,0.0,2.0,64,0.00,,,0.00,LWC V2.00 B2112,2013-01-16 08:39:00,
2013-01-16 00:44:00,40.7,29.9,30.39,ESE,107,1.0,2.0,65,0.00,,,0.00,LWC V2.00 B2112,2013-01-16 08:44:00,
2013-01-16 00:49:00,40.6,29.8,30.39,ESE,107,0.0,1.0,65,0.00,,,0.00,LWC V2.00 B2112,2013-01-16 08:49:00,
2013-01-16 00:54:00,40.5,29.7,30.39,ESE,107,0.0,0.0,65,0.00,,,0.00,LWC V2.00 B2112,2013-01-16 08:54:00,
2013-01-16 00:59:00,40.5,29.7,30.39,ESE,107,0.0,0.0,65,0.00,,,0.00,LWC V2.00 B2112,2013-01-16 08:59:00,
2013-01-16 01:04:00,40.4,29.6,30.39,ESE,107,2.0,2.0,65,0.00,,,0.00,LWC V2.00 B2112,2013-01-16 09:04:00,
2013-01-16 01:09:00,40.3,29.5,30.39,ESE,107,0.0,0.0,65,0.00,,,0.00,LWC V2.00 B2112,2013-01-16 09:09:00,
2013-01-16 01:14:00,40.2,29.4,30.39,ESE,106,0.0,0.0,65,0.00,,,0.00,LWC V2.00 B2112,2013-01-16 09:14:00,
2013-01-16 01:19:00,40.2,29.8,30.39,ESE,107,0.0,2.0,66,0.00,,,0.00,LWC V2.00 B2112,2013-01-16 09:19:00,
2013-01-16 01:24:00,40.3,29.5,30.40,ESE,107,0.0,1.0,65,0.00,,,0.00,LWC V2.00 B2112,2013-01-16 09:24:00,
2013-01-16 01:29:00,40.4,29.6,30.40,ESE,107,0.0,0.0,65,0.00,,,0.00,LWC V2.00 B2112,2013-01-16 09:29:00,
2013-01-16 01:34:00,40.4,29.6,30.40,ESE,107,0.0,1.0,65,0.00,,,0.00,LWC V2.00 B2112,2013-01-16 09:34:00,
2013-01-16 01:39:00,40.4,29.6,30.40,ESE,107,0.0,0.0,65,0.00,,,0.00,LWC V2.00 B2112,2013-01-16 09:39:00,
2013-01-16 01:44:00,40.4,29.6,30.40,ESE,107,0.0,0.0,65,0.00,,,0.00,LWC V2.00 B2112,2013-01-16 09:44:00,
2013-01-16 01:49:00,40.4,29.6,30.40,ESE,106,0.0,0.0,65,0.00,,,0.00,LWC V2.00 B2112,2013-01-16 09:49:00,
2013-01-16 01:54:00,40.3,29.5,30.40,ESE,106,0.0,0.0,65,0.00,,,0.00,LWC V2.00 B2112,2013-01-16 09:54:00,
2013-01-16 01:59:00,40.3,29.5,30.40,ESE,107,0.0,0.0,65,0.00,,,0.00,LWC V2.00 B2112,2013-01-16 09:59:00,
2013-01-16 02:04:00,40.3,29.5,30.40,ESE,107,1.0,1.0,65,0.00,,,0.00,LWC V2.00 B2112,2013-01-16 10:04:00,
2013-01-16 02:09:00,40.4,29.6,30.40,ESE,106,0.0,1.0,65,0.00,,,0.00,LWC V2.00 B2112,2013-01-16 10:09:00,
2013-01-16 02:14:00,40.4,29.6,30.40,ESE,107,0.0,0.0,65,0.00,,,0.00,LWC V2.00 B2112,2013-01-16 10:14:00,
2013-01-16 02:19:00,40.4,29.6,30.40,ESE,107,0.0,0.0,65,0.00,,,0.00,LWC V2.00 B2112,2013-01-16 10:19:00,
2013-01-16 02:24:00,40.4,29.6,30.40,ESE,106,0.0,1.0,65,0.00,,,0.00,LWC V2.00 B2112,2013-01-16 10:24:00,
2013-01-16 02:29:00,40.4,29.6,30.40,ESE,107,1.0,2.0,65,0.00,,,0.00,LWC V2.00 B2112,2013-01-16 10:29:00,
2013-01-16 02:34:00,40.3,29.5,30.40,ESE,106,0.0,0.0,65,0.00,,,0.00,LWC V2.00 B2112,2013-01-16 10:34:00,
2013-01-16 02:39:00,40.2,29.4,30.40,ESE,107,0.0,1.0,65,0.00,,,0.00,LWC V2.00 B2112,2013-01-16 10:39:00,
2013-01-16 02:44:00,40.3,29.5,30.40,ESE,106,2.0,2.0,65,0.00,,,0.00,LWC V2.00 B2112,2013-01-16 10:44:00,
2013-01-16 02:49:00,40.4,29.6,30.40,ESE,106,1.0,2.0,65,0.00,,,0.00,LWC V2.00 B2112,2013-01-16 10:49:00,
2013-01-16 02:54:00,40.5,29.7,30.40,ESE,107,1.0,1.0,65,0.00,,,0.00,LWC V2.00 B2112,2013-01-16 10:54:00,
2013-01-16 02:59:00,40.4,29.6,30.40,ESE,107,1.0,2.0,65,0.00,,,0.00,LWC V2.00 B2112,2013-01-16 10:59:00,
2013-01-16 03:04:00,40.4,29.6,30.40,ESE,106,0.0,0.0,65,0.00,,,0.00,LWC V2.00 B2112,2013-01-16 11:04:00,
2013-01-16 03:09:00,40.4,29.6,30.40,ESE,106,0.0,0.0,65,0.00,,,0.00,LWC V2.00 B2112,2013-01-16 11:09:00,
2013-01-16 03:14:00,40.4,29.6,30.39,ESE,107,0.0,0.0,65,0.00,,,0.00,LWC V2.00 B2112,2013-01-16 11:14:00,
2013-01-16 03:19:00,40.4,29.6,30.39,ESE,107,0.0,0.0,65,0.00,,,0.00,LWC V2.00 B2112,2013-01-16 11:19:00,
2013-01-16 03:24:00,40.2,29.4,30.39,ESE,106,0.0,0.0,65,0.00,,,0.00,LWC V2.00 B2112,2013-01-16 11:24:00,
2013-01-16 03:29:00,40.2,29.4,30.39,ESE,107,0.0,1.0,65,0.00,,,0.00,LWC V2.00 B2112,2013-01-16 11:29:00,
2013-01-16 03:34:00,40.1,29.3,30.39,ESE,107,2.0,2.0,65,0.00,,,0.00,LWC V2.00 B2112,2013-01-16 11:34:00,
2013-01-16 03:39:00,40.1,29.3,30.39,ESE,106,0.0,0.0,65,0.00,,,0.00,LWC V2.00 B2112,2013-01-16 11:39:00,
2013-01-16 03:44:00,40.0,29.6,30.39,ESE,107,0.0,0.0,66,0.00,,,0.00,LWC V2.00 B2112,2013-01-16 11:44:00,
2013-01-16 03:49:00,39.9,29.1,30.39,ESE,107,0.0,0.0,65,0.00,,,0.00,LWC V2.00 B2112,2013-01-16 11:49:00,
2013-01-16 03:54:00,39.8,29.0,30.39,ESE,107,0.0,0.0,65,0.00,,,0.00,LWC V2.00 B2112,2013-01-16 11:54:00,
2013-01-16 03:59:00,39.5,29.1,30.39,ESE,106,0.0,0.0,66,0.00,,,0.00,LWC V2.00 B2112,2013-01-16 11:59:00,
2013-01-16 04:04:00,39.1,29.1,30.39,ESE,106,0.0,1.0,67,0.00,,,0.00,LWC V2.00 B2112,2013-01-16 12:04:00,
2013-01-16 04:09:00,38.9,28.9,30.39,ESE,107,0.0,0.0,67,0.00,,,0.00,LWC V2.00 B2112,2013-01-16 12:09:00,
2013-01-16 04:14:00,38.8,29.2,30.38,ESE,106,2.0,2.0,68,0.00,,,0.00,LWC V2.00 B2112,2013-01-16 12:14:00,
2013-01-16 04:19:00,38.8,29.2,30.38,ESE,106,0.0,0.0,68,0.00,,,0.00,LWC V2.00 B2112,2013-01-16 12:19:00,
2013-01-16 04:24:00,38.8,29.2,30.38,ESE,107,0.0,1.0,68,0.00,,,0.00,LWC V2.00 B2112,2013-01-16 12:24:00,
2013-01-16 04:29:00,38.9,29.3,30.38,ESE,107,0.0,0.0,68,0.00,,,0.00,LWC V2.00 B2112,2013-01-16 12:29:00,
2013-01-16 04:34:00,39.0,29.3,30.38,ESE,107,0.0,0.0,68,0.00,,,0.00,LWC V2.00 B2112,2013-01-16 12:34:00,
2013-01-16 04:39:00,39.0,29.3,30.38,ESE,106,0.0,0.0,68,0.00,,,0.00,LWC V2.00 B2112,2013-01-16 12:39:00,
2013-01-16 04:44:00,39.0,29.0,30.38,ESE,107,0.0,0.0,67,0.00,,,0.00,LWC V2.00 B2112,2013-01-16 12:44:00,
2013-01-16 04:49:00,38.9,29.3,30.38,ESE,107,1.0,1.0,68,0.00,,,0.00,LWC V2.00 B2112,2013-01-16 12:49:00,
2013-01-16 04:54:00,38.8,29.2,30.38,ESE,107,0.0,1.0,68,0.00,,,0.00,LWC V2.00 B2112,2013-01-16 12:54:00,
2013-01-16 04:59:00,38.8,29.2,30.37,ESE,106,1.0,2.0,68,0.00,,,0.00,LWC V2.00 B2112,2013-01-16 12:59:00,
2013-01-16 05:04:00,38.8,29.2,30.37,ESE,107,0.0,0.0,68,0.00,,,0.00,LWC V2.00 B2112,2013-01-16 13:04:00,
2013-01-16 05:09:00,38.8,29.2,30.37,ESE,107,0.0,0.0,68,0.00,,,0.00,LWC V2.00 B2112,2013-01-16 13:09:00,
2013-01-16 05:14:00,38.9,29.3,30.36,ESE,106,0.0,0.0,68,0.00,,,0.00,LWC V2.00 B2112,2013-01-16 13:14:00,
2013-01-16 05:19:00,39.1,29.4,30.36,ESE,107,0.0,0.0,68,0.00,,,0.00,LWC V2.00 B2112,2013-01-16 13:19:00,
2013-01-16 05:24:00,39.3,29.3,30.36,ESE,107,0.0,2.0,67,0.00,,,0.00,LWC V2.00 B2112,2013-01-16 13:24:00,
2013-01-16 05:29:00,39.3,29.3,30.36,ESE,107,1.0,2.0,67,0.00,,,0.00,LWC V2.00 B2112,2013-01-16 13:29:00,
2013-01-16 05:34:00,39.2,29.2,30.36,ESE,107,0.0,0.0,67,0.00,,,0.00,LWC V2.00 B2112,2013-01-16 13:34:00,
2013-01-16 05:39:00,39.1,29.1,30.37,ESE,107,0.0,1.0,67,0.00,,,0.00,LWC V2.00 B2112,2013-01-16 13:39:00,
2013-01-16 05:44:00,39.1,29.1,30.37,ESE,107,0.0,0.0,67,0.00,,,0.00,LWC V2.00 B2112,2013-01-16 13:44:00,
2013-01-16 05:49:00,39.2,29.2,30.36,ESE,106,0.0,1.0,67,0.00,,,0.00,LWC V2.00 B2112,2013-01-16 13:49:00,
2013-01-16 05:54:00,39.1,29.1,30.36,ESE,106,0.0,0.0,67,0.00,,,0.00,LWC V2.00 B2112,2013-01-16 13:54:00,
2013-01-16 05:59:00,39.0,29.0,30.36,ESE,106,0.0,0.0,67,0.00,,,0.00,LWC V2.00 B2112,2013-01-16 13:59:00,
2013-01-16 06:04:00,38.9,28.9,30.37,ESE,107,0.0,0.0,67,0.00,,,0.00,LWC V2.00 B2112,2013-01-16 14:04:00,
2013-01-16 06:09:00,38.7,29.1,30.37,ESE,107,0.0,0.0,68,0.00,,,0.00,LWC V2.00 B2112,2013-01-16 14:09:00,
2013-01-16 06:14:00,38.7,29.1,30.36,ESE,107,0.0,0.0,68,0.00,,,0.00,LWC V2.00 B2112,2013-01-16 14:14:00,
2013-01-16 06:19:00,38.6,29.0,30.37,ESE,107,0.0,0.0,68,0.00,,,0.00,LWC V2.00 B2112,2013-01-16 14:19:00,
2013-01-16 06:24:00,38.4,29.1,30.37,ESE,107,0.0,0.0,69,0.00,,,0.00,LWC V2.00 B2112,2013-01-16 14:24:00,
2013-01-16 06:29:00,38.2,28.9,30.36,ESE,106,0.0,1.0,69,0.00,,,0.00,LWC V2.00 B2112,2013-01-16 14:29:00,
2013-01-16 06:34:00,38.1,29.2,30.36,ESE,106,0.0,0.0,70,0.00,,,0.00,LWC V2.00 B2112,2013-01-16 14:34:00,
2013-01-16 06:39:00,38.1,29.2,30.37,ESE,107,0.0,0.0,70,0.00,,,0.00,LWC V2.00 B2112,2013-01-16 14:39:00,
2013-01-16 06:44:00,38.1,29.2,30.36,ESE,107,0.0,1.0,70,0.00,,,0.00,LWC V2.00 B2112,2013-01-16 14:44:00,
2013-01-16 06:49:00,38.0,29.1,30.37,ESE,106,0.0,1.0,70,0.00,,,0.00,LWC V2.00 B2112,2013-01-16 14:49:00,
2013-01-16 06:54:00,38.1,29.2,30.36,ESE,106,2.0,2.0,70,0.00,,,0.00,LWC V2.00 B2112,2013-01-16 14:54:00,
2013-01-16 06:59:00,38.1,29.2,30.37,ESE,107,2.0,2.0,70,0.00,,,0.00,LWC V2.00 B2112,2013-01-16 14:59:00,
2013-01-16 07:04:00,38.2,29.3,30.37,ESE,107,1.0,2.0,70,0.00,,,0.00,LWC V2.00 B2112,2013-01-16 15:04:00,
2013-01-16 07:09:00,38.5,29.6,30.37,ESE,106,2.0,2.0,70,0.00,,,0.00,LWC V2.00 B2112,2013-01-16 15:09:00,
2013-01-16 07:14:00,38.6,29.7,30.37,ESE,107,0.0,1.0,70,0.00,,,0.00,LWC V2.00 B2112,2013-01-16 15:14:00,
2013-01-16 07:19:00,38.7,29.8,30.37,ESE,107,2.0,2.0,70,0.00,,,0.00,LWC V2.00 B2112,2013-01-16 15:19:00,
2013-01-16 07:24:00,38.9,29.6,30.37,ESE,107,2.0,2.0,69,0.00,,,0.00,LWC V2.00 B2112,2013-01-16 15:24:00,
2013-01-16 07:29:00,38.9,29.6,30.36,ESE,106,2.0,2.0,69,0.00,,,0.00,LWC V2.00 B2112,2013-01-16 15:29:00,
2013-01-16 07:34:00,39.0,29.7,30.37,ESE,107,1.0,2.0,69,0.00,,,0.00,LWC V2.00 B2112,2013-01-16 15:34:00,
2013-01-16 07:39:00,39.1,29.4,30.37,ESE,107,0.0,0.0,68,0.00,,,0.00,LWC V2.00 B2112,2013-01-16 15:39:00,
2013-01-16 07:44:00,39.2,29.5,30.37,ESE,107,1.0,2.0,68,0.00,,,0.00,LWC V2.00 B2112,2013-01-16 15:44:00,
2013-01-16 07:49:00,39.4,29.4,30.37,ESE,106,0.0,1.0,67,0.00,,,0.00,LWC V2.00 B2112,2013-01-16 15:49:00,
2013-01-16 07:54:00,39.6,29.6,30.37,ESE,107,1.0,2.0,67,0.00,,,0.00,LWC V2.00 B2112,2013-01-16 15:54:00,
2013-01-16 07:59:00,39.7,29.7,30.37,ESE,107,0.0,0.0,67,0.00,,,0.00,LWC V2.00 B2112,2013-01-16 15:59:00,
2013-01-16 08:04:00,39.8,29.8,30.37,ESE,106,0.0,0.0,67,0.00,,,0.00,LWC V2.00 B2112,2013-01-16 16:04:00,
2013-01-16 08:09:00,39.8,29.8,30.37,ESE,107,0.0,0.0,67,0.00,,,0.00,LWC V2.00 B2112,2013-01-16 16:09:00,
2013-01-16 08:14:00,40.0,29.6,30.37,ESE,107,0.0,0.0,66,0.00,,,0.00,LWC V2.00 B2112,2013-01-16 16:14:00,
2013-01-16 08:19:00,40.2,29.8,30.37,ESE,107,0.0,0.0,66,0.00,,,0.00,LWC V2.00 B2112,2013-01-16 16:19:00,
2013-01-16 08:24:00,40.3,29.9,30.37,ESE,107,0.0,0.0,66,0.00,,,0.00,LWC V2.00 B2112,2013-01-16 16:24:00,
2013-01-16 08:29:00,40.5,30.0,30.37,ESE,107,0.0,0.0,66,0.00,,,0.00,LWC V2.00 B2112,2013-01-16 16:29:00,
2013-01-16 08:34:00,40.6,30.5,30.37,ESE,107,0.0,0.0,67,0.00,,,0.00,LWC V2.00 B2112,2013-01-16 16:34:00,
2013-01-16 08:39:00,40.6,30.5,30.37,ESE,106,0.0,0.0,67,0.00,,,0.00,LWC V2.00 B2112,2013-01-16 16:39:00,
2013-01-16 08:44:00,40.6,30.9,30.37,ESE,106,0.0,0.0,68,0.00,,,0.00,LWC V2.00 B2112,2013-01-16 16:44:00,
2013-01-16 08:49:00,40.7,31.0,30.37,ESE,107,0.0,0.0,68,0.00,,,0.00,LWC V2.00 B2112,2013-01-16 16:49:00,
2013-01-16 08:54:00,40.7,31.0,30.37,ESE,107,0.0,0.0,68,0.00,,,0.00,LWC V2.00 B2112,2013-01-16 16:54:00,
2013-01-16 08:59:00,40.8,31.4,30.37,ESE,106,0.0,0.0,69,0.00,,,0.00,LWC V2.00 B2112,2013-01-16 16:59:00,
2013-01-16 09:04:00,40.9,31.5,30.37,ESE,106,0.0,0.0,69,0.00,,,0.00,LWC V2.00 B2112,2013-01-16 17:04:00,
2013-01-16 09:09:00,41.1,31.7,30.38,ESE,107,0.0,0.0,69,0.00,,,0.00,LWC V2.00 B2112,2013-01-16 17:09:00,
2013-01-16 09:14:00,41.4,32.4,30.38,ESE,106,0.0,1.0,70,0.00,,,0.00,LWC V2.00 B2112,2013-01-16 17:14:00,
2013-01-16 09:19:00,41.7,33.0,30.38,ESE,106,2.0,2.0,71,0.00,,,0.00,LWC V2.00 B2112,2013-01-16 17:19:00,
2013-01-16 09:24:00,42.2,33.5,30.38,ESE,107,3.0,4.0,71,0.00,,,0.00,LWC V2.00 B2112,2013-01-16 17:24:00,
2013-01-16 09:29:00,42.4,33.3,30.38,ESE,107,2.0,3.0,70,0.00,,,0.00,LWC V2.00 B2112,2013-01-16 17:29:00,
2013-01-16 09:34:00,42.7,33.6,30.38,ESE,107,0.0,2.0,70,0.00,,,0.00,LWC V2.00 B2112,2013-01-16 17:34:00,
2013-01-16 09:39:00,42.9,33.8,30.38,ESE,107,1.0,3.0,70,0.00,,,0.00,LWC V2.00 B2112,2013-01-16 17:39:00,
2013-01-16 09:44:00,43.2,34.1,30.38,ESE,108,2.0,3.0,70,0.00,,,0.00,LWC V2.00 B2112,2013-01-16 17:44:00,
2013-01-16 09:49:00,43.6,34.5,30.37,ESE,109,1.0,4.0,70,0.00,,,0.00,LWC V2.00 B2112,2013-01-16 17:49:00,
2013-01-16 09:54:00,44.0,34.5,30.37,ESE,107,0.0,4.0,69,0.00,,,0.00,LWC V2.00 B2112,2013-01-16 17:54:00,
2013-01-16 09:59:00,44.3,34.4,30.37,ESE,107,0.0,2.0,68,0.00,,,0.00,LWC V2.00 B2112,2013-01-16 17:59:00,
2013-01-16 10:04:00,44.6,34.7,30.37,ESE,108,2.0,3.0,68,0.00,,,0.00,LWC V2.00 B2112,2013-01-16 18:04:00,
2013-01-16 10:09:00,45.0,35.1,30.37,ESE,108,2.0,3.0,68,0.00,,,0.00,LWC V2.00 B2112,2013-01-16 18:09:00,
2013-01-16 10:14:00,45.4,35.5,30.37,ESE,109,3.0,4.0,68,0.00,,,0.00,LWC V2.00 B2112,2013-01-16 18:14:00,
2013-01-16 10:19:00,46.2,35.5,30.37,NNE,33,4.0,4.0,66,0.00,,,0.00,LWC V2.00 B2112,2013-01-16 18:19:00,
2013-01-16 10:24:00,46.8,34.9,30.36,WNW,301,4.0,6.0,63,0.00,,,0.00,LWC V2.00 B2112,2013-01-16 18:24:00,
2013-01-16 10:29:00,47.3,34.9,30.36,WNW,299,3.0,3.0,62,0.00,,,0.00,LWC V2.00 B2112,2013-01-16 18:29:00,
2013-01-16 10:34:00,47.7,34.5,30.36,WNW,299,3.0,4.0,60,0.00,,,0.00,LWC V2.00 B2112,2013-01-16 18:34:00,
2013-01-16 10:39:00,48.0,34.8,30.36,WNW,299,0.0,1.0,60,0.00,,,0.00,LWC V2.00 B2112,2013-01-16 18:39:00,
2013-01-16 10:44:00,48.3,35.1,30.36,WNW,299,3.0,3.0,60,0.00,,,0.00,LWC V2.00 B2112,2013-01-16 18:44:00,
2013-01-16 10:49:00,48.6,34.9,30.36,WNW,299,2.0,3.0,59,0.00,,,0.00,LWC V2.00 B2112,2013-01-16 18:49:00,
2013-01-16 10:54:00,48.8,34.2,30.36,WNW,299,1.0,2.0,57,0.00,,,0.00,LWC V2.00 B2112,2013-01-16 18:54:00,
2013-01-16 10:59:00,49.0,34.0,30.36,WNW,299,2.0,3.0,56,0.00,,,0.00,LWC V2.00 B2112,2013-01-16 18:59:00,
2013-01-16 11:04:00,49.1,33.2,30.35,WNW,299,1.0,4.0,54,0.00,,,0.00,LWC V2.00 B2112,2013-01-16 19:04:00,
2013-01-16 11:09:00,49.2,33.3,30.35,WNW,299,0.0,4.0,54,0.00,,,0.00,LWC V2.00 B2112,2013-01-16 19:09:00,
2013-01-16 11:14:00,49.6,34.1,30.35,WNW,299,2.0,4.0,55,0.00,,,0.00,LWC V2.00 B2112,2013-01-16 19:14:00,
2013-01-16 11:19:00,49.9,34.4,30.34,WNW,299,0.0,2.0,55,0.00,,,0.00,LWC V2.00 B2112,2013-01-16 19:19:00,
2013-01-16 11:24:00,50.5,34.0,30.34,WNW,292,0.0,1.0,53,0.00,,,0.00,LWC V2.00 B2112,2013-01-16 19:24:00,
2013-01-16 11:29:00,51.0,34.0,30.34,West,272,2.0,4.0,52,0.00,,,0.00,LWC V2.00 B2112,2013-01-16 19:29:00,
2013-01-16 11:34:00,51.4,34.4,30.34,West,272,2.0,3.0,52,0.00,,,0.00,LWC V2.00 B2112,2013-01-16 19:34:00,
2013-01-16 11:39:00,51.7,34.2,30.34,West,271,3.0,5.0,51,0.00,,,0.00,LWC V2.00 B2112,2013-01-16 19:39:00,
2013-01-16 11:44:00,51.9,33.3,30.33,West,271,1.0,5.0,49,0.00,,,0.00,LWC V2.00 B2112,2013-01-16 19:44:00,
2013-01-16 11:49:00,52.1,32.5,30.33,West,271,0.0,0.0,47,0.00,,,0.00,LWC V2.00 B2112,2013-01-16 19:49:00,
2013-01-16 11:54:00,52.6,33.0,30.33,South,182,4.0,5.0,47,0.00,,,0.00,LWC V2.00 B2112,2013-01-16 19:54:00,
2013-01-16 11:59:00,52.7,33.0,30.32,South,179,1.0,3.0,47,0.00,,,0.00,LWC V2.00 B2112,2013-01-16 19:59:00,
2013-01-16 12:04:00,52.9,34.8,30.32,South,176,0.0,1.0,50,0.00,,,0.00,LWC V2.00 B2112,2013-01-16 20:04:00,
2013-01-16 12:09:00,53.2,35.0,30.32,SSE,154,3.0,5.0,50,0.00,,,0.00,LWC V2.00 B2112,2013-01-16 20:09:00,
2013-01-16 12:14:00,53.2,34.5,30.31,SSW,195,3.0,5.0,49,0.00,,,0.00,LWC V2.00 B2112,2013-01-16 20:14:00,
2013-01-16 12:19:00,53.1,35.0,30.31,SSW,205,1.0,3.0,50,0.00,,,0.00,LWC V2.00 B2112,2013-01-16 20:19:00,
2013-01-16 12:24:00,53.3,35.6,30.30,SSW,205,0.0,3.0,51,0.00,,,0.00,LWC V2.00 B2112,2013-01-16 20:24:00,
2013-01-16 12:29:00,53.7,36.0,30.30,SSW,205,2.0,4.0,51,0.00,,,0.00,LWC V2.00 B2112,2013-01-16 20:29:00,
2013-01-16 12:34:00,54.0,35.8,30.30,SSW,197,1.0,3.0,50,0.00,,,0.00,LWC V2.00 B2112,2013-01-16 20:34:00,
2013-01-16 12:39:00,54.3,36.6,30.30,West,261,0.0,3.0,51,0.00,,,0.00,LWC V2.00 B2112,2013-01-16 20:39:00,
2013-01-16 12:44:00,54.6,37.3,30.29,West,259,3.0,5.0,52,0.00,,,0.00,LWC V2.00 B2112,2013-01-16 20:44:00,
2013-01-16 12:49:00,54.6,36.3,30.29,South,186,2.0,5.0,50,0.00,,,0.00,LWC V2.00 B2112,2013-01-16 20:49:00,
2013-01-16 12:54:00,54.8,36.0,30.29,SSW,199,0.0,3.0,49,0.00,,,0.00,LWC V2.00 B2112,2013-01-16 20:54:00,
2013-01-16 12:59:00,54.9,36.6,30.28,SSW,199,1.0,1.0,50,0.00,,,0.00,LWC V2.00 B2112,2013-01-16 20:59:00,
2013-01-16 13:04:00,55.3,37.0,30.28,SSW,206,0.0,2.0,50,0.00,,,0.00,LWC V2.00 B2112,2013-01-16 21:04:00,
2013-01-16 13:09:00,55.5,37.7,30.28,WNW,298,2.0,3.0,51,0.00,,,0.00,LWC V2.00 B2112,2013-01-16 21:09:00,
2013-01-16 13:14:00,55.5,37.2,30.28,WNW,298,0.0,3.0,50,0.00,,,0.00,LWC V2.00 B2112,2013-01-16 21:14:00,
2013-01-16 13:19:00,55.7,37.3,30.28,WNW,298,1.0,4.0,50,0.00,,,0.00,LWC V2.00 B2112,2013-01-16 21:19:00,
2013-01-16 13:24:00,55.9,37.5,30.27,WNW,298,0.0,0.0,50,0.00,,,0.00,LWC V2.00 B2112,2013-01-16 21:24:00,
2013-01-16 13:29:00,56.2,36.8,30.27,SW,225,1.0,5.0,48,0.00,,,0.00,LWC V2.00 B2112,2013-01-16 21:29:00,
2013-01-16 13:34:00,56.4,37.5,30.27,SW,227,2.0,4.0,49,0.00,,,0.00,LWC V2.00 B2112,2013-01-16 21:34:00,
2013-01-16 13:39:00,56.4,37.5,30.27,South,184,0.0,3.0,49,0.00,,,0.00,LWC V2.00 B2112,2013-01-16 21:39:00,
2013-01-16 13:44:00,56.5,37.6,30.27,South,184,2.0,4.0,49,0.00,,,0.00,LWC V2.00 B2112,2013-01-16 21:44:00,
2013-01-16 13:49:00,56.7,37.8,30.27,South,171,2.0,5.0,49,0.00,,,0.00,LWC V2.00 B2112,2013-01-16 21:49:00,
2013-01-16 13:54:00,56.7,37.2,30.27,South,171,2.0,5.0,48,0.00,,,0.00,LWC V2.00 B2112,2013-01-16 21:54:00,
2013-01-16 13:59:00,56.9,37.4,30.27,South,188,2.0,5.0,48,0.00,,,0.00,LWC V2.00 B2112,2013-01-16 21:59:00,
2013-01-16 14:04:00,57.2,37.7,30.26,South,184,0.0,4.0,48,0.00,,,0.00,LWC V2.00 B2112,2013-01-16 22:04:00,
2013-01-16 14:09:00,57.3,38.3,30.26,South,186,4.0,5.0,49,0.00,,,0.00,LWC V2.00 B2112,2013-01-16 22:09:00,
2013-01-16 14:14:00,57.4,37.3,30.26,South,186,0.0,1.0,47,0.00,,,0.00,LWC V2.00 B2112,2013-01-16 22:14:00,
2013-01-16 14:19:00,57.6,37.0,30.26,South,186,1.0,3.0,46,0.00,,,0.00,LWC V2.00 B2112,2013-01-16 22:19:00,
2013-01-16 14:24:00,57.5,36.9,30.26,South,176,0.0,3.0,46,0.00,,,0.00,LWC V2.00 B2112,2013-01-16 22:24:00,
2013-01-16 14:29:00,57.3,36.7,30.26,South,184,3.0,5.0,46,0.00,,,0.00,LWC V2.00 B2112,2013-01-16 22:29:00,
2013-01-16 14:34:00,57.1,37.1,30.26,South,190,3.0,5.0,47,0.00,,,0.00,LWC V2.00 B2112,2013-01-16 22:34:00,
2013-01-16 14:39:00,56.9,36.9,30.26,SSW,192,2.0,3.0,47,0.00,,,0.00,LWC V2.00 B2112,2013-01-16 22:39:00,
2013-01-16 14:44:00,57.0,38.5,30.26,South,191,0.0,0.0,50,0.00,,,0.00,LWC V2.00 B2112,2013-01-16 22:44:00,
2013-01-16 14:49:00,57.1,36.5,30.26,SSW,192,3.0,4.0,46,0.00,,,0.00,LWC V2.00 B2112,2013-01-16 22:49:00,
2013-01-16 14:54:00,57.1,36.5,30.26,South,184,0.0,3.0,46,0.00,,,0.00,LWC V2.00 B2112,2013-01-16 22:54:00,
2013-01-16 14:59:00,57.2,37.2,30.26,South,186,3.0,5.0,47,0.00,,,0.00,LWC V2.00 B2112,2013-01-16 22:59:00,
2013-01-16 15:04:00,57.2,37.2,30.26,South,186,3.0,4.0,47,0.00,,,0.00,LWC V2.00 B2112,2013-01-16 23:04:00,
2013-01-16 15:09:00,57.1,36.0,30.26,South,188,2.0,3.0,45,0.00,,,0.00,LWC V2.00 B2112,2013-01-16 23:09:00,
2013-01-16 15:14:00,57.0,36.4,30.26,South,188,1.0,2.0,46,0.00,,,0.00,LWC V2.00 B2112,2013-01-16 23:14:00,
2013-01-16 15:19:00,56.9,35.8,30.26,South,187,4.0,4.0,45,0.00,,,0.00,LWC V2.00 B2112,2013-01-16 23:19:00,
2013-01-16 15:24:00,56.9,35.8,30.26,South,186,2.0,5.0,45,0.00,,,0.00,LWC V2.00 B2112,2013-01-16 23:24:00,
2013-01-16 15:29:00,56.8,36.2,30.26,South,186,0.0,3.0,46,0.00,,,0.00,LWC V2.00 B2112,2013-01-16 23:29:00,
2013-01-16 15:34:00,56.9,36.3,30.26,South,186,2.0,3.0,46,0.00,,,0.00,LWC V2.00 B2112,2013-01-16 23:34:00,
2013-01-16 15:39:00,56.9,36.3,30.26,South,186,1.0,1.0,46,0.00,,,0.00,LWC V2.00 B2112,2013-01-16 23:39:00,
2013-01-16 15:44:00,57.0,35.9,30.26,South,186,1.0,2.0,45,0.00,,,0.00,LWC V2.00 B2112,2013-01-16 23:44:00,
2013-01-16 15:49:00,57.3,36.7,30.26,South,184,1.0,3.0,46,0.00,,,0.00,LWC V2.00 B2112,2013-01-16 23:49:00,
2013-01-16 15:54:00,57.4,36.2,30.26,South,185,3.0,4.0,45,0.00,,,0.00,LWC V2.00 B2112,2013-01-16 23:54:00,
2013-01-16 15:59:00,57.4,36.2,30.26,South,185,0.0,5.0,45,0.00,,,0.00,LWC V2.00 B2112,2013-01-16 23:59:00,
2013-01-16 16:04:00,57.4,36.2,30.26,South,180,2.0,3.0,45,0.00,,,0.00,LWC V2.00 B2112,2013-01-17 00:04:00,
2013-01-16 16:09:00,57.3,36.7,30.26,South,175,2.0,4.0,46,0.00,,,0.00,LWC V2.00 B2112,2013-01-17 00:09:00,
2013-01-16 16:14:00,57.2,35.5,30.26,South,175,0.0,5.0,44,0.00,,,0.00,LWC V2.00 B2112,2013-01-17 00:14:00,
2013-01-16 16:19:00,57.1,37.1,30.26,South,174,2.0,4.0,47,0.00,,,0.00,LWC V2.00 B2112,2013-01-17 00:19:00,
2013-01-16 16:24:00,56.9,36.3,30.26,SSE,160,4.0,5.0,46,0.00,,,0.00,LWC V2.00 B2112,2013-01-17 00:24:00,
2013-01-16 16:29:00,56.8,36.8,30.26,SSE,161,0.0,3.0,47,0.00,,,0.00,LWC V2.00 B2112,2013-01-17 00:29:00,
2013-01-16 16:34:00,56.8,36.8,30.26,SSE,161,0.0,5.0,47,0.00,,,0.00,LWC V2.00 B2112,2013-01-17 00:34:00,
2013-01-16 16:39:00,56.6,36.6,30.26,SSE,161,5.0,5.0,47,0.00,,,0.00,LWC V2.00 B2112,2013-01-17 00:39:00,
2013-01-16 16:44:00,56.4,37.0,30.26,SSE,161,0.0,4.0,48,0.00,,,0.00,LWC V2.00 B2112,2013-01-17 00:44:00,
2013-01-16 16:49:00,56.4,37.5,30.26,SSE,161,0.0,2.0,49,0.00,,,0.00,LWC V2.00 B2112,2013-01-17 00:49:00,
2013-01-16 16:54:00,56.2,37.3,30.26,SSE,161,0.0,1.0,49,0.00,,,0.00,LWC V2.00 B2112,2013-01-17 00:54:00,
2013-01-16 16:59:00,56.0,37.1,30.26,SSE,161,0.0,2.0,49,0.00,,,0.00,LWC V2.00 B2112,2013-01-17 00:59:00,
2013-01-16 17:04:00,55.7,36.8,30.25,SSE,161,0.0,2.0,49,0.00,,,0.00,LWC V2.00 B2112,2013-01-17 01:04:00,
2013-01-16 17:09:00,55.5,37.2,30.25,SSE,161,0.0,2.0,50,0.00,,,0.00,LWC V2.00 B2112,2013-01-17 01:09:00,
2013-01-16 17:14:00,55.0,36.7,30.25,SE,145,0.0,4.0,50,0.00,,,0.00,LWC V2.00 B2112,2013-01-17 01:14:00,
2013-01-16 17:19:00,54.5,36.7,30.25,SE,144,0.0,3.0,51,0.00,,,0.00,LWC V2.00 B2112,2013-01-17 01:19:00,
2013-01-16 17:24:00,54.0,36.8,30.25,SE,142,0.0,2.0,52,0.00,,,0.00,LWC V2.00 B2112,2013-01-17 01:24:00,
2013-01-16 17:29:00,53.3,37.1,30.25,SE,140,3.0,3.0,54,0.00,,,0.00,LWC V2.00 B2112,2013-01-17 01:29:00,
2013-01-16 17:34:00,52.7,37.0,30.25,SE,128,3.0,4.0,55,0.00,,,0.00,LWC V2.00 B2112,2013-01-17 01:34:00,
2013-01-16 17:39:00,52.1,36.9,30.25,ESE,117,0.0,2.0,56,0.00,,,0.00,LWC V2.00 B2112,2013-01-17 01:39:00,
2013-01-16 17:44:00,51.7,36.5,30.25,ESE,117,3.0,3.0,56,0.00,,,0.00,LWC V2.00 B2112,2013-01-17 01:44:00,
2013-01-16 17:49:00,51.2,36.5,30.25,ESE,109,0.0,3.0,57,0.00,,,0.00,LWC V2.00 B2112,2013-01-17 01:49:00,
2013-01-16 17:54:00,50.8,36.1,30.25,ESE,109,3.0,5.0,57,0.00,,,0.00,LWC V2.00 B2112,2013-01-17 01:54:00,
2013-01-16 17:59:00,50.3,36.1,30.25,ESE,117,1.0,3.0,58,0.00,,,0.00,LWC V2.00 B2112,2013-01-17 01:59:00,
2013-01-16 18:04:00,49.9,35.3,30.25,ESE,118,1.0,4.0,57,0.00,,,0.00,LWC V2.00 B2112,2013-01-17 02:04:00,
2013-01-16 18:09:00,49.7,35.1,30.25,SE,137,0.0,2.0,57,0.00,,,0.00,LWC V2.00 B2112,2013-01-17 02:09:00,
2013-01-16 18:14:00,49.6,35.0,30.25,SE,135,0.0,3.0,57,0.00,,,0.00,LWC V2.00 B2112,2013-01-17 02:14:00,
2013-01-16 18:19:00,49.6,35.0,30.25,ESE,122,2.0,4.0,57,0.00,,,0.00,LWC V2.00 B2112,2013-01-17 02:19:00,
2013-01-16 18:24:00,49.6,35.0,30.25,East,84,2.0,3.0,57,0.00,,,0.00,LWC V2.00 B2112,2013-01-17 02:24:00,
2013-01-16 18:29:00,49.6,35.0,30.25,East,95,1.0,3.0,57,0.00,,,0.00,LWC V2.00 B2112,2013-01-17 02:29:00,
2013-01-16 18:34:00,49.5,34.9,30.25,ESE,102,1.0,3.0,57,0.00,,,0.00,LWC V2.00 B2112,2013-01-17 02:34:00,
2013-01-16 18:39:00,49.4,34.8,30.25,ESE,107,4.0,5.0,57,0.00,,,0.00,LWC V2.00 B2112,2013-01-17 02:39:00,
2013-01-16 18:44:00,49.5,34.9,30.25,ESE,105,3.0,5.0,57,0.00,,,0.00,LWC V2.00 B2112,2013-01-17 02:44:00,
2013-01-16 18:49:00,49.6,34.6,30.25,ESE,113,3.0,5.0,56,0.00,,,0.00,LWC V2.00 B2112,2013-01-17 02:49:00,
2013-01-16 18:54:00,49.7,34.6,30.25,ESE,105,1.0,4.0,56,0.00,,,0.00,LWC V2.00 B2112,2013-01-17 02:54:00,
2013-01-16 18:59:00,49.8,34.7,30.25,ESE,105,0.0,3.0,56,0.00,,,0.00,LWC V2.00 B2112,2013-01-17 02:59:00,
2013-01-16 19:04:00,49.7,34.6,30.25,ESE,105,3.0,4.0,56,0.00,,,0.00,LWC V2.00 B2112,2013-01-17 03:04:00,
2013-01-16 19:09:00,49.4,34.8,30.25,ESE,105,1.0,1.0,57,0.00,,,0.00,LWC V2.00 B2112,2013-01-17 03:09:00,
2013-01-16 19:14:00,49.1,35.0,30.25,ESE,105,0.0,1.0,58,0.00,,,0.00,LWC V2.00 B2112,2013-01-17 03:14:00,
2013-01-16 19:19:00,48.6,34.5,30.24,ESE,105,0.0,3.0,58,0.00,,,0.00,LWC V2.00 B2112,2013-01-17 03:19:00,
2013-01-16 19:24:00,48.2,34.6,30.24,ESE,105,0.0,2.0,59,0.00,,,0.00,LWC V2.00 B2112,2013-01-17 03:24:00,
2013-01-16 19:29:00,47.8,34.6,30.25,ESE,105,2.0,3.0,60,0.00,,,0.00,LWC V2.00 B2112,2013-01-17 03:29:00,
2013-01-16 19:34:00,47.6,34.8,30.25,ESE,105,3.0,4.0,61,0.00,,,0.00,LWC V2.00 B2112,2013-01-17 03:34:00,
2013-01-16 19:39:00,47.6,34.8,30.25,ESE,105,2.0,3.0,61,0.00,,,0.00,LWC V2.00 B2112,2013-01-17 03:39:00,
2013-01-16 19:44:00,47.6,34.8,30.25,ESE,104,0.0,3.0,61,0.00,,,0.00,LWC V2.00 B2112,2013-01-17 03:44:00,
2013-01-16 19:49:00,47.4,34.6,30.25,ESE,103,0.0,3.0,61,0.00,,,0.00,LWC V2.00 B2112,2013-01-17 03:49:00,
2013-01-16 19:54:00,47.3,34.9,30.24,ESE,103,1.0,3.0,62,0.00,,,0.00,LWC V2.00 B2112,2013-01-17 03:54:00,
2013-01-16 19:59:00,47.3,34.9,30.24,ESE,103,0.0,2.0,62,0.00,,,0.00,LWC V2.00 B2112,2013-01-17 03:59:00,
2013-01-16 20:04:00,47.2,34.9,30.24,ESE,103,0.0,3.0,62,0.00,,,0.00,LWC V2.00 B2112,2013-01-17 04:04:00,
2013-01-16 20:09:00,47.2,34.9,30.24,ESE,103,0.0,1.0,62,0.00,,,0.00,LWC V2.00 B2112,2013-01-17 04:09:00,
2013-01-16 20:14:00,47.0,34.7,30.24,ESE,103,0.0,3.0,62,0.00,,,0.00,LWC V2.00 B2112,2013-01-17 04:14:00,
2013-01-16 20:19:00,46.8,34.5,30.24,ESE,103,1.0,2.0,62,0.00,,,0.00,LWC V2.00 B2112,2013-01-17 04:19:00,
2013-01-16 20:24:00,46.8,34.5,30.24,ESE,103,0.0,1.0,62,0.00,,,0.00,LWC V2.00 B2112,2013-01-17 04:24:00,
2013-01-16 20:29:00,46.8,34.1,30.24,ESE,102,0.0,2.0,61,0.00,,,0.00,LWC V2.00 B2112,2013-01-17 04:29:00,
2013-01-16 20:34:00,47.2,33.6,30.24,ESE,103,0.0,1.0,59,0.00,,,0.00,LWC V2.00 B2112,2013-01-17 04:34:00,
2013-01-16 20:39:00,47.8,33.3,30.24,ESE,103,0.0,1.0,57,0.00,,,0.00,LWC V2.00 B2112,2013-01-17 04:39:00,
2013-01-16 20:44:00,48.2,33.2,30.24,ESE,102,1.0,3.0,56,0.00,,,0.00,LWC V2.00 B2112,2013-01-17 04:44:00,
2013-01-16 20:49:00,48.3,32.9,30.24,ESE,102,0.0,3.0,55,0.00,,,0.00,LWC V2.00 B2112,2013-01-17 04:49:00,
2013-01-16 20:54:00,48.2,32.8,30.24,ESE,103,0.0,1.0,55,0.00,,,0.00,LWC V2.00 B2112,2013-01-17 04:54:00,
2013-01-16 20:59:00,48.1,32.2,30.23,ESE,103,1.0,2.0,54,0.00,,,0.00,LWC V2.00 B2112,2013-01-17 04:59:00,
2013-01-16 21:04:00,48.1,32.2,30.23,ESE,102,0.0,2.0,54,0.00,,,0.00,LWC V2.00 B2112,2013-01-17 05:04:00,
2013-01-16 21:09:00,48.2,32.3,30.23,ESE,103,1.0,2.0,54,0.00,,,0.00,LWC V2.00 B2112,2013-01-17 05:09:00,
2013-01-16 21:14:00,48.2,32.3,30.23,ESE,103,3.0,3.0,54,0.00,,,0.00,LWC V2.00 B2112,2013-01-17 05:14:00,
2013-01-16 21:19:00,48.3,32.4,30.23,ESE,102,0.0,0.0,54,0.00,,,0.00,LWC V2.00 B2112,2013-01-17 05:19:00,
2013-01-16 21:24:00,48.3,32.4,30.23,ESE,102,0.0,0.0,54,0.00,,,0.00,LWC V2.00 B2112,2013-01-17 05:24:00,
2013-01-16 21:29:00,48.3,32.4,30.23,ESE,103,0.0,0.0,54,0.00,,,0.00,LWC V2.00 B2112,2013-01-17 05:29:00,
2013-01-16 21:34:00,48.1,32.7,30.23,ESE,103,0.0,1.0,55,0.00,,,0.00,LWC V2.00 B2112,2013-01-17 05:34:00,
2013-01-16 21:39:00,47.8,32.9,30.23,ESE,103,0.0,1.0,56,0.00,,,0.00,LWC V2.00 B2112,2013-01-17 05:39:00,
2013-01-16 21:44:00,47.6,32.7,30.23,ESE,103,0.0,1.0,56,0.00,,,0.00,LWC V2.00 B2112,2013-01-17 05:44:00,
2013-01-16 21:49:00,47.4,32.9,30.23,ESE,103,2.0,3.0,57,0.00,,,0.00,LWC V2.00 B2112,2013-01-17 05:49:00,
2013-01-16 21:54:00,47.4,32.9,30.22,ESE,102,0.0,1.0,57,0.00,,,0.00,LWC V2.00 B2112,2013-01-17 05:54:00,
2013-01-16 21:59:00,47.2,32.8,30.22,ESE,102,0.0,2.0,57,0.00,,,0.00,LWC V2.00 B2112,2013-01-17 05:59:00,
2013-01-16 22:04:00,47.3,32.8,30.22,ESE,103,0.0,0.0,57,0.00,,,0.00,LWC V2.00 B2112,2013-01-17 06:04:00,
2013-01-16 22:09:00,47.3,33.3,30.23,ESE,103,0.0,0.0,58,0.00,,,0.00,LWC V2.00 B2112,2013-01-17 06:09:00,
2013-01-16 22:14:00,47.2,33.2,30.23,ESE,103,1.0,2.0,58,0.00,,,0.00,LWC V2.00 B2112,2013-01-17 06:14:00,
2013-01-16 22:19:00,47.1,33.1,30.23,ESE,102,0.0,0.0,58,0.00,,,0.00,LWC V2.00 B2112,2013-01-17 06:19:00,
2013-01-16 22:24:00,47.0,33.0,30.23,ESE,103,0.0,1.0,58,0.00,,,0.00,LWC V2.00 B2112,2013-01-17 06:24:00,
2013-01-16 22:29:00,46.9,33.3,30.23,ESE,103,1.0,2.0,59,0.00,,,0.00,LWC V2.00 B2112,2013-01-17 06:29:00,
2013-01-16 22:34:00,46.9,33.3,30.23,ESE,103,0.0,1.0,59,0.00,,,0.00,LWC V2.00 B2112,2013-01-17 06:34:00,
2013-01-16 22:39:00,46.8,33.2,30.23,ESE,102,0.0,0.0,59,0.00,,,0.00,LWC V2.00 B2112,2013-01-17 06:39:00,
2013-01-16 22:44:00,46.7,33.6,30.23,ESE,103,0.0,1.0,60,0.00,,,0.00,LWC V2.00 B2112,2013-01-17 06:44:00,
2013-01-16 22:49:00,46.6,33.5,30.23,ESE,103,0.0,0.0,60,0.00,,,0.00,LWC V2.00 B2112,2013-01-17 06:49:00,
2013-01-16 22:54:00,46.6,33.5,30.23,ESE,102,1.0,2.0,60,0.00,,,0.00,LWC V2.00 B2112,2013-01-17 06:54:00,
2013-01-16 22:59:00,46.6,33.0,30.23,ESE,103,0.0,0.0,59,0.00,,,0.00,LWC V2.00 B2112,2013-01-17 06:59:00,
2013-01-16 23:04:00,46.6,33.0,30.23,ESE,103,0.0,0.0,59,0.00,,,0.00,LWC V2.00 B2112,2013-01-17 07:04:00,
2013-01-16 23:09:00,46.5,33.4,30.22,ESE,103,0.0,0.0,60,0.00,,,0.00,LWC V2.00 B2112,2013-01-17 07:09:00,
2013-01-16 23:14:00,46.3,33.2,30.23,ESE,102,0.0,2.0,60,0.00,,,0.00,LWC V2.00 B2112,2013-01-17 07:14:00,
2013-01-16 23:19:00,46.0,33.3,30.23,ESE,103,0.0,0.0,61,0.00,,,0.00,LWC V2.00 B2112,2013-01-17 07:19:00,
2013-01-16 23:24:00,45.6,33.3,30.23,ESE,103,0.0,1.0,62,0.00,,,0.00,LWC V2.00 B2112,2013-01-17 07:24:00,
2013-01-16 23:29:00,45.3,33.1,30.22,ESE,103,0.0,1.0,62,0.00,,,0.00,LWC V2.00 B2112,2013-01-17 07:29:00,
2013-01-16 23:34:00,45.0,33.2,30.22,ESE,102,1.0,2.0,63,0.00,,,0.00,LWC V2.00 B2112,2013-01-17 07:34:00,
2013-01-16 23:39:00,44.8,33.0,30.22,ESE,103,0.0,0.0,63,0.00,,,0.00,LWC V2.00 B2112,2013-01-17 07:39:00,
2013-01-16 23:44:00,44.6,32.8,30.23,ESE,103,1.0,2.0,63,0.00,,,0.00,LWC V2.00 B2112,2013-01-17 07:44:00,
2013-01-16 23:49:00,44.6,32.8,30.23,ESE,103,0.0,0.0,63,0.00,,,0.00,LWC V2.00 B2112,2013-01-17 07:49:00,
2013-01-16 23:54:00,44.7,32.9,30.23,ESE,103,0.0,0.0,63,0.00,,,0.00,LWC V2.00 B2112,2013-01-17 07:54:00,
2013-01-16 23:59:00,44.8,33.4,30.23,ESE,103,0.0,0.0,64,0.00,,,0.00,LWC V2.00 B2112,2013-01-17 07:59:00,